Location: Campestrin
(46.4667°N, 11.7167°E)
Time: 04:27:45
(UTC+00:00)

Cosmos 2058 Rocket - Pass Details

Date: 18 April 2021
Orbit: 611 x 638 km, 82.5° (Epoch: 16 May)

Event Time Altitude Azimuth Distance (km) Brightness Sun altitude
Rises 18:51:26 0° 175° (S) 2,867 6.2 -8.2°
Reaches altitude 10° 18:53:41 10° 170° (S) 1,965 5.3 -8.6°
Maximum altitude 18:57:54 52° 94° (E) 764 3.2 -9.2°
Drops below altitude 10° 19:02:08 10° 18° (NNE) 1,978 5.8 -9.9°
Sets 19:04:24 0° 14° (NNE) 2,888 6.7 -10.2°
